Weather History for False Pass, AK

Change the Weather History Date:

Saturday, January 19, 2013

  Actual Average (PACD) Record (PACD)
Temperature  
Mean Temperature 37 °F 28 °F  
Max Temperature 39 °F 33 °F 45 °F (2011)
Min Temperature 35 °F 23 °F 2 °F (1980)
Degree Days  
Heating Degree Days 28 37  
Month to date heating degree days 695  
Since 1 July heating degree days 4772  
Cooling Degree Days 0    
Month to date cooling degree days  
Year to date cooling degree days  
Moisture  
Dew Point 36 °F    
Average Humidity 95    
Maximum Humidity 100    
Minimum Humidity 82    
Precipitation  
Precipitation 0.87 in 0.10 in 1.63 in (1982)
Month to date precipitation 1.96  
Year to date precipitation 1.96  
Snow  
Snow 0.00 in 0.50 in 2.80 in (2004)
Month to date snowfall 8.6  
Since 1 July snowfall 33.8  
Snow Depth -    
Sea Level Pressure  
Sea Level Pressure 29.08 in    
Wind  
Wind Speed 17 mph (East)    
Max Wind Speed 30 mph    
Max Gust Speed 46 mph    
Visibility 4 miles    
Events Rain , Snow    
T = Trace of Precipitation, MM = Missing Value Source: NWS Daily Summary

Daily Weather History Graph

Daily Weather History Graph

Search for Another Location

Airport:

Trip Planner

Search our weather history database for the weather conditions in past years. The results will help you decide how hot, cold, wet, or windy it might be!

Date:

Astronomy

Jan. 19, 2013 Rise Set
Actual Time 9:03 AM HAST 5:06 PM HAST
Civil Twilight 8:21 AM HAST 5:48 PM HAST
Nautical Twilight 7:36 AM HAST 6:33 PM HAST
Astronomical Twilight 6:53 AM HAST 7:16 PM HAST
Moon 11:49 AM HAST (1/19) 2:36 AM HAST (1/19)
Length of Visible Light 9h 27m
Length of Day
8h 03m
First Quarter, 59% of the Moon is Illuminated
Jan 19
First Quarter
Jan 26
Full
Feb 3
Last Quarter
Feb 9
New
Feb 17
First Quarter

Hourly Weather History & Observations

Time (HAST) Temp. Windchill Dew Point Humidity Pressure Visibility Wind Dir Wind Speed Gust Speed Precip Events Conditions
12:01 AM 36.0 °F 24.7 °F 34.0 °F 93% 29.62 in 5.0 mi East 21.9 mph 31.1 mph 0.07 in   Overcast
1:01 AM 36.0 °F 25.6 °F 35.1 °F 97% 29.59 in 5.0 mi ENE 18.4 mph 31.1 mph 0.03 in Rain Light Rain
2:01 AM 37.0 °F 27.4 °F 35.1 °F 93% 29.57 in 5.0 mi ENE 17.3 mph 25.3 mph 0.03 in Rain Light Rain
3:01 AM 37.0 °F 30.4 °F 35.1 °F 93% 29.54 in 5.0 mi East 9.2 mph 21.9 mph 0.05 in Rain Light Rain
3:35 AM 37.4 °F 28.9 °F 35.6 °F 93% 29.24 in 6.0 mi ENE 13.8 mph 20.7 mph 0.04 in Rain Light Rain
4:01 AM 37.4 °F 32.8 °F 35.6 °F 93% 29.22 in 9.0 mi Variable 5.8 mph 17.3 mph 0.05 in Rain Light Rain
5:01 AM 37.0 °F 29.3 °F 34.0 °F 89% 29.47 in 8.0 mi East 11.5 mph 28.8 mph 0.09 in Rain Light Rain
6:01 AM 37.0 °F 28.5 °F 35.1 °F 93% 29.43 in 5.0 mi East 13.8 mph 31.1 mph 0.11 in   Overcast
7:01 AM 37.0 °F 33.3 °F 35.1 °F 93% 29.38 in 5.0 mi Variable 4.6 mph - 0.08 in   Overcast
8:01 AM 37.4 °F 32.1 °F 35.6 °F 93% 29.07 in 7.0 mi Variable 6.9 mph - 0.06 in Rain Light Rain
8:37 AM 39.2 °F 29.8 °F 35.6 °F 87% 29.05 in 6.0 mi ENE 18.4 mph 33.4 mph 0.11 in Rain Light Rain
9:01 AM 39.2 °F 29.3 °F 37.4 °F 93% 29.04 in 4.0 mi ENE 20.7 mph 31.1 mph 0.13 in Rain Light Rain
10:01 AM 39.2 °F 28.7 °F 37.4 °F 93% 29.02 in 3.0 mi ENE 23.0 mph 34.5 mph 0.20 in Rain Rain
10:08 AM 39.2 °F 29.6 °F 37.4 °F 93% 29.02 in 1.5 mi East 19.6 mph 32.2 mph 0.20 in Rain Light Rain
10:20 AM 39.2 °F 28.7 °F 37.4 °F 93% 29.01 in 1.8 mi ENE 23.0 mph 33.4 mph 0.21 in Rain Light Rain
10:35 AM 39.2 °F 29.3 °F 37.4 °F 93% 29.01 in 2.0 mi East 20.7 mph 28.8 mph 0.21 in Rain Light Rain
11:01 AM 39.0 °F 28.5 °F 37.0 °F 93% 29.28 in 2.5 mi East 23.0 mph 29.9 mph 0.21 in Rain Light Rain
11:08 AM 39.2 °F 28.7 °F 37.4 °F 93% 28.99 in 2.0 mi East 23.0 mph 28.8 mph 0.00 in Rain Light Rain
11:23 AM 39.2 °F 29.0 °F 37.4 °F 93% 28.98 in 1.8 mi ENE 21.9 mph 32.2 mph 0.00 in Rain Light Rain
11:41 AM 37.4 °F 26.9 °F 37.4 °F 100% 28.97 in 2.0 mi East 20.7 mph 27.6 mph 0.00 in Rain Light Rain
12:01 PM 37.9 °F 27.9 °F 37.0 °F 97% 29.23 in 2.0 mi East 19.6 mph 28.8 mph 0.01 in Rain Light Rain
12:09 PM 37.4 °F 28.2 °F 37.4 °F 100% 28.95 in 1.8 mi ENE 16.1 mph 26.5 mph 0.00 in Rain Light Rain
12:19 PM 37.4 °F 27.2 °F 37.4 °F 100% 28.95 in 3.0 mi East 19.6 mph 29.9 mph 0.00 in Rain Light Rain
12:33 PM 37.4 °F 27.5 °F 37.4 °F 100% 28.94 in 2.5 mi East 18.4 mph 26.5 mph 0.00 in Rain Light Rain
12:49 PM 37.4 °F 29.3 °F 37.4 °F 100% 28.93 in 1.8 mi East 12.7 mph 20.7 mph 0.01 in Rain Light Rain
1:01 PM 37.4 °F 27.5 °F 37.4 °F 100% 28.92 in 2.0 mi East 18.4 mph 25.3 mph 0.02 in Rain Light Rain
1:10 PM 37.4 °F 26.9 °F 37.4 °F 100% 28.91 in 4.0 mi ENE 20.7 mph 28.8 mph 0.02 in Rain Light Rain
1:25 PM 37.4 °F 26.6 °F 37.4 °F 100% 28.90 in 2.0 mi East 21.9 mph 27.6 mph 0.03 in Rain Light Rain
1:35 PM 37.4 °F 26.9 °F 37.4 °F 100% 28.89 in 3.0 mi East 20.7 mph 25.3 mph 0.03 in Rain Light Rain
1:44 PM 37.4 °F 27.2 °F 37.4 °F 100% 28.90 in 2.5 mi East 19.6 mph 27.6 mph 0.03 in Rain Light Rain
1:51 PM 37.4 °F 27.8 °F 37.4 °F 100% 28.89 in 3.0 mi ENE 17.3 mph 27.6 mph 0.03 in Rain Light Rain
2:01 PM 37.4 °F 27.5 °F 37.4 °F 100% 28.88 in 2.5 mi ENE 18.4 mph 26.5 mph 0.03 in Rain Light Rain
2:16 PM 37.4 °F 28.2 °F 37.4 °F 100% 28.88 in 3.0 mi East 16.1 mph 25.3 mph 0.03 in Rain Light Rain
2:22 PM 37.9 °F 29.6 °F 37.0 °F 97% 29.15 in 4.0 mi East 13.8 mph 20.7 mph 0.03 in Rain Light Rain
2:44 PM 37.4 °F 27.8 °F 37.4 °F 100% 28.86 in 5.0 mi East 17.3 mph 23.0 mph 0.00 in Rain Light Rain
3:01 PM 37.9 °F 30.5 °F 37.0 °F 97% 29.13 in 3.0 mi East 11.5 mph 21.9 mph 0.00 in Rain Light Rain
4:01 PM 37.9 °F 30.0 °F 37.0 °F 97% 29.12 in 6.0 mi East 12.7 mph 20.7 mph 0.01 in Rain Light Rain
4:36 PM 37.4 °F 30.8 °F 37.4 °F 100% 28.84 in 5.0 mi ESE 9.2 mph - 0.00 in Rain Light Rain
5:01 PM 37.9 °F 31.5 °F 37.0 °F 97% 29.11 in 8.0 mi ESE 9.2 mph - 0.02 in Rain Light Rain
5:44 PM 37.4 °F 28.5 °F 37.4 °F 100% 28.84 in 10.0 mi SE 15.0 mph 23.0 mph 0.05 in Rain Light Rain
6:01 PM 37.0 °F 28.1 °F 36.0 °F 96% 29.12 in 10.0 mi SE 15.0 mph 21.9 mph 0.07 in Rain Light Rain
6:08 PM 37.4 °F 28.9 °F 35.6 °F 93% 28.84 in 10.0 mi SE 13.8 mph 25.3 mph 0.01 in Rain Light Rain
7:01 PM 35.6 °F 24.8 °F 33.8 °F 93% 28.85 in 9.0 mi SSE 19.6 mph 29.9 mph 0.07 in Snow Light Snow
7:19 PM 36.0 °F 27.1 °F 34.0 °F 93% 29.13 in 9.0 mi SSE 13.8 mph 23.0 mph 0.08 in   Overcast
8:01 PM 37.9 °F 26.3 °F 35.1 °F 89% 29.15 in 3.0 mi SSE 26.5 mph 46.0 mph 0.02 in Rain Light Rain
8:54 PM 37.4 °F 25.0 °F 33.8 °F 87% 28.93 in 2.5 mi South 29.9 mph 40.3 mph 0.02 in Rain Light Rain
9:01 PM 37.0 °F 25.4 °F 33.1 °F 86% 29.22 in 2.5 mi South 25.3 mph 40.3 mph 0.02 in Rain Light Rain
9:09 PM 35.6 °F 23.2 °F 33.8 °F 93% 28.95 in 4.0 mi SSE 26.5 mph 41.4 mph 0.00 in Rain Light Rain
10:16 PM 35.6 °F 24.0 °F 32.0 °F 87% 29.02 in 5.0 mi SSE 23.0 mph 31.1 mph 0.00 in Rain Light Rain
11:01 PM 37.0 °F 24.9 °F 32.0 °F 82% 29.30 in 10.0 mi SSE 27.6 mph 38.0 mph 0.01 in Rain Light Rain